| time (UTC) | temp F | wind direction | speed MPH | gust MPH | rain 1hr in | rain 24hr in | rain mn in | humidity % | barometer mb |
| 20260507174313 | 62 | 279 | 7.0 | 11.0 | 0.00 | 0.01 | 0.00 | 49 | 1008.9 |
| 20260507173826 | 62 | 14 | 1.0 | 10.0 | 0.00 | 0.01 | 0.00 | 46 | 1009.0 |
| 20260507173317 | 62 | 12 | 7.0 | 10.0 | 0.00 | 0.01 | 0.00 | 51 | 1009.1 |
| 20260507172829 | 62 | 313 | 2.0 | 12.0 | 0.00 | 0.01 | 0.00 | 51 | 1009.2 |
| 20260507172321 | 62 | 28 | 5.0 | 12.0 | 0.00 | 0.01 | 0.00 | 49 | 1009.2 |
| 20260507171813 | 62 | 18 | 2.0 | 7.0 | 0.00 | 0.01 | 0.00 | 49 | 1009.4 |
| 20260507171325 | 61 | 155 | 5.0 | 12.0 | 0.00 | 0.01 | 0.00 | 50 | 1009.5 |
| 20260507170837 | 61 | 290 | 5.0 | 12.0 | 0.00 | 0.01 | 0.00 | 51 | 1009.5 |
| 20260507170331 | 60 | 296 | 5.0 | 8.0 | 0.00 | 0.01 | 0.00 | 53 | 1009.6 |
| 20260507165824 | 60 | 24 | 3.0 | 12.0 | 0.00 | 0.01 | 0.00 | 49 | 1009.7 |
| 20260507165316 | 60 | 309 | 8.0 | 13.0 | 0.00 | 0.01 | 0.00 | 50 | 1009.9 |
| 20260507164828 | 60 | 300 | 8.0 | 13.0 | 0.00 | 0.01 | 0.00 | 54 | 1009.8 |
| 20260507164320 | 60 | 296 | 7.0 | 11.0 | 0.00 | 0.01 | 0.00 | 58 | 1009.8 |
| 20260507163853 | 60 | 9 | 4.0 | 9.0 | 0.00 | 0.01 | 0.00 | 56 | 1009.9 |
| 20260507163324 | 60 | 309 | 5.0 | 9.0 | 0.00 | 0.01 | 0.00 | 53 | 1010.0 |
| 20260507162816 | 59 | 170 | 3.0 | 10.0 | 0.00 | 0.01 | 0.00 | 51 | 1010.2 |
| 20260507162328 | 59 | 153 | 5.0 | 10.0 | 0.00 | 0.01 | 0.00 | 52 | 1010.2 |
| 20260507161824 | 58 | 287 | 3.0 | 11.0 | 0.00 | 0.01 | 0.00 | 58 | 1010.1 |
| 20260507161336 | 58 | 303 | 8.0 | 14.0 | 0.00 | 0.01 | 0.00 | 51 | 1010.2 |
| 20260507160847 | 58 | 277 | 4.0 | 14.0 | 0.00 | 0.01 | 0.00 | 53 | 1010.2 |
| 20260507160318 | 59 | 272 | 7.0 | 13.0 | 0.00 | 0.01 | 0.00 | 53 | 1010.4 |
| 20260507155828 | 58 | 311 | 3.0 | 11.0 | 0.00 | 0.01 | 0.00 | 57 | 1010.5 |
| 20260507155320 | 58 | 297 | 4.0 | 9.0 | 0.00 | 0.01 | 0.00 | 55 | 1010.6 |
| 20260507154852 | 57 | 295 | 3.0 | 8.0 | 0.00 | 0.01 | 0.00 | 55 | 1010.7 |
| 20260507154323 | 56 | 150 | 4.0 | 10.0 | 0.00 | 0.01 | 0.00 | 54 | 1010.7 |
| 20260507153835 | 56 | 292 | 5.0 | 12.0 | 0.00 | 0.01 | 0.00 | 55 | 1010.8 |
| 20260507153327 | 56 | 306 | 8.0 | 12.0 | 0.00 | 0.01 | 0.00 | 55 | 1010.8 |
| 20260507152839 | 56 | 304 | 9.0 | 12.0 | 0.00 | 0.01 | 0.00 | 58 | 1010.8 |
| 20260507152313 | 56 | 289 | 7.0 | 10.0 | 0.00 | 0.01 | 0.00 | 54 | 1010.7 |
| 20260507151826 | 55 | 298 | 5.0 | 12.0 | 0.00 | 0.01 | 0.00 | 56 | 1010.9 |
| 20260507151317 | 55 | 300 | 7.0 | 13.0 | 0.00 | 0.01 | 0.00 | 52 | 1011.0 |
| 20260507150850 | 55 | 306 | 8.0 | 13.0 | 0.00 | 0.01 | 0.00 | 54 | 1010.9 |
| 20260507150342 | 55 | 276 | 6.0 | 13.0 | 0.00 | 0.01 | 0.00 | 53 | 1011.1 |
| 20260507145853 | 54 | 288 | 8.0 | 14.0 | 0.00 | 0.01 | 0.00 | 54 | 1011.2 |
| 20260507145323 | 55 | 284 | 6.0 | 14.0 | 0.00 | 0.01 | 0.00 | 53 | 1011.3 |
| 20260507144836 | 56 | 308 | 7.0 | 11.0 | 0.00 | 0.01 | 0.00 | 56 | 1011.4 |
| 20260507144327 | 55 | 9 | 6.0 | 9.0 | 0.00 | 0.01 | 0.00 | 60 | 1011.6 |
| 20260507143819 | 54 | 95 | 3.0 | 6.0 | 0.00 | 0.01 | 0.00 | 60 | 1011.7 |
| 20260507143353 | 54 | 293 | 4.0 | 8.0 | 0.00 | 0.01 | 0.00 | 57 | 1011.8 |
| 20260507142828 | 54 | 290 | 6.0 | 9.0 | 0.00 | 0.01 | 0.00 | 54 | 1011.9 |
| 20260507142340 | 55 | 278 | 4.0 | 12.0 | 0.00 | 0.01 | 0.00 | 58 | 1011.8 |
| 20260507141832 | 54 | 26 | 6.0 | 12.0 | 0.00 | 0.01 | 0.00 | 58 | 1011.8 |
| 20260507141323 | 53 | 273 | 5.0 | 9.0 | 0.00 | 0.01 | 0.00 | 59 | 1011.9 |
| 20260507140815 | 53 | 19 | 4.0 | 8.0 | 0.00 | 0.01 | 0.00 | 60 | 1011.9 |
| 20260507140347 | 53 | 13 | 4.0 | 9.0 | 0.00 | 0.01 | 0.00 | 58 | 1012.0 |
| 20260507135815 | 52 | 305 | 6.0 | 10.0 | 0.00 | 0.01 | 0.00 | 61 | 1012.1 |
| 20260507135328 | 52 | 249 | 6.0 | 10.0 | 0.00 | 0.01 | 0.00 | 59 | 1012.1 |
| 20260507134819 | 52 | 281 | 6.0 | 12.0 | 0.00 | 0.01 | 0.00 | 57 | 1012.1 |
| 20260507134316 | 52 | 296 | 7.0 | 12.0 | 0.00 | 0.02 | 0.00 | 58 | 1012.2 |
| 20260507133828 | 52 | 287 | 8.0 | 10.0 | 0.00 | 0.02 | 0.00 | 58 | 1012.2 |
| 20260507133320 | 52 | 313 | 6.0 | 10.0 | 0.00 | 0.02 | 0.00 | 59 | 1012.4 |
| 20260507132832 | 52 | 282 | 6.0 | 11.0 | 0.00 | 0.02 | 0.00 | 55 | 1012.4 |
| 20260507132324 | 53 | 284 | 7.0 | 11.0 | 0.00 | 0.02 | 0.00 | 55 | 1012.4 |
| 20260507131816 | 53 | 290 | 7.0 | 11.0 | 0.00 | 0.02 | 0.00 | 56 | 1012.4 |
| 20260507131328 | 52 | 277 | 5.0 | 11.0 | 0.00 | 0.02 | 0.00 | 59 | 1012.4 |
| 20260507130819 | 51 | 281 | 5.0 | 11.0 | 0.00 | 0.02 | 0.00 | 61 | 1012.3 |
| 20260507130314 | 50 | 296 | 6.0 | 11.0 | 0.00 | 0.02 | 0.00 | 62 | 1012.3 |
| 20260507125825 | 50 | 277 | 7.0 | 11.0 | 0.00 | 0.02 | 0.00 | 58 | 1012.4 |
| 20260507125316 | 50 | 286 | 5.0 | 11.0 | 0.00 | 0.02 | 0.00 | 61 | 1012.5 |
| 20260507124828 | 50 | 295 | 5.0 | 11.0 | 0.00 | 0.02 | 0.00 | 62 | 1012.5 |
| 20260507124339 | 50 | 273 | 7.0 | 11.0 | 0.00 | 0.05 | 0.00 | 60 | 1012.4 |
| 20260507123830 | 50 | 302 | 4.0 | 12.0 | 0.00 | 0.05 | 0.00 | 62 | 1012.5 |
| 20260507123321 | 50 | 270 | 6.0 | 12.0 | 0.00 | 0.05 | 0.00 | 60 | 1012.4 |
| 20260507122813 | 50 | 277 | 4.0 | 7.0 | 0.00 | 0.05 | 0.00 | 64 | 1012.4 |
| 20260507122326 | 50 | 292 | 3.0 | 8.0 | 0.00 | 0.05 | 0.00 | 66 | 1012.4 |
| 20260507121822 | 50 | 311 | 3.0 | 8.0 | 0.00 | 0.05 | 0.00 | 68 | 1012.5 |
| 20260507121313 | 49 | 303 | 3.0 | 7.0 | 0.00 | 0.05 | 0.00 | 67 | 1012.4 |
| 20260507120826 | 49 | 311 | 3.0 | 5.0 | 0.00 | 0.05 | 0.00 | 71 | 1012.4 |
| 20260507120318 | 49 | 309 | 2.0 | 3.0 | 0.00 | 0.05 | 0.00 | 72 | 1012.4 |
| 20260507115827 | 49 | 15 | 1.0 | 3.0 | 0.00 | 0.05 | 0.00 | 74 | 1012.4 |
| 20260507115318 | 49 | 311 | 1.0 | 3.0 | 0.00 | 0.05 | 0.00 | 74 | 1012.3 |
| 20260507114831 | 49 | 311 | 1.0 | 5.0 | 0.00 | 0.05 | 0.00 | 74 | 1012.3 |
| 20260507114342 | 49 | 298 | 2.0 | 5.0 | 0.00 | 0.07 | 0.00 | 74 | 1012.3 |
| 20260507113813 | 49 | 302 | 2.0 | 4.0 | 0.00 | 0.07 | 0.00 | 73 | 1012.2 |
| 20260507113345 | 49 | 305 | 1.0 | 5.0 | 0.00 | 0.07 | 0.00 | 72 | 1012.2 |
| 20260507112820 | 48 | 293 | 3.0 | 5.0 | 0.00 | 0.07 | 0.00 | 73 | 1012.1 |
| 20260507112332 | 48 | 290 | 2.0 | 4.0 | 0.00 | 0.07 | 0.00 | 72 | 1012.1 |
| 20260507111824 | 48 | 307 | 3.0 | 5.0 | 0.00 | 0.07 | 0.00 | 73 | 1012.0 |
| 20260507111316 | 48 | 304 | 3.0 | 5.0 | 0.00 | 0.07 | 0.00 | 72 | 1012.0 |
| 20260507110828 | 48 | 285 | 4.0 | 6.0 | 0.00 | 0.07 | 0.00 | 73 | 1011.9 |
| 20260507110320 | 48 | 298 | 3.0 | 5.0 | 0.00 | 0.07 | 0.00 | 73 | 1012.0 |
| 20260507105830 | 48 | 304 | 3.0 | 5.0 | 0.00 | 0.07 | 0.00 | 75 | 1012.1 |
| 20260507105322 | 48 | 282 | 3.0 | 8.0 | 0.00 | 0.07 | 0.00 | 75 | 1012.0 |
| 20260507104819 | 49 | 306 | 5.0 | 8.0 | 0.00 | 0.07 | 0.00 | 75 | 1011.9 |
| 20260507104331 | 49 | 300 | 6.0 | 8.0 | 0.00 | 0.07 | 0.00 | 75 | 1011.9 |
| 20260507103841 | 49 | 311 | 3.0 | 6.0 | 0.00 | 0.07 | 0.00 | 79 | 1011.8 |
| 20260507103332 | 49 | 306 | 2.0 | 3.0 | 0.00 | 0.07 | 0.00 | 81 | 1011.8 |
| 20260507102824 | 49 | 14 | 0.0 | 4.0 | 0.00 | 0.07 | 0.00 | 81 | 1011.7 |
| 20260507102337 | 49 | 303 | 2.0 | 4.0 | 0.00 | 0.07 | 0.00 | 80 | 1011.6 |
| 20260507101828 | 49 | 309 | 2.0 | 4.0 | 0.00 | 0.07 | 0.00 | 79 | 1011.3 |
| 20260507101320 | 49 | 304 | 3.0 | 4.0 | 0.00 | 0.07 | 0.00 | 78 | 1011.2 |
| 20260507100851 | 49 | 296 | 2.0 | 4.0 | 0.00 | 0.07 | 0.00 | 78 | 1011.2 |
| 20260507100322 | 49 | 290 | 2.0 | 6.0 | 0.00 | 0.07 | 0.00 | 78 | 1011.3 |
| 20260507095817 | 49 | 290 | 1.0 | 5.0 | 0.00 | 0.07 | 0.00 | 78 | 1011.3 |
| 20260507095349 | 49 | 293 | 3.0 | 5.0 | 0.00 | 0.07 | 0.00 | 78 | 1011.3 |
| 20260507094820 | 49 | 292 | 2.0 | 6.0 | 0.00 | 0.07 | 0.00 | 79 | 1011.3 |
| 20260507094332 | 49 | 279 | 2.0 | 6.0 | 0.00 | 0.07 | 0.00 | 79 | 1011.1 |
| 20260507093824 | 49 | 277 | 2.0 | 5.0 | 0.00 | 0.07 | 0.00 | 79 | 1011.0 |
| 20260507093336 | 50 | 290 | 3.0 | 4.0 | 0.00 | 0.07 | 0.00 | 79 | 1011.1 |
| 20260507092827 | 50 | 298 | 2.0 | 5.0 | 0.00 | 0.07 | 0.00 | 79 | 1010.9 |
| 20260507092318 | 50 | 304 | 3.0 | 8.0 | 0.00 | 0.07 | 0.00 | 79 | 1010.9 |
| 20260507091830 | 50 | 296 | 4.0 | 8.0 | 0.00 | 0.07 | 0.00 | 79 | 1010.9 |
| 20260507091342 | 50 | 287 | 3.0 | 8.0 | 0.00 | 0.07 | 0.00 | 78 | 1010.9 |
| 20260507090817 | 50 | 298 | 4.0 | 7.0 | 0.00 | 0.07 | 0.00 | 78 | 1011.1 |
| 20260507090329 | 50 | 284 | 2.0 | 5.0 | 0.00 | 0.07 | 0.00 | 78 | 1011.1 |
| 20260507085818 | 50 | 273 | 3.0 | 8.0 | 0.00 | 0.07 | 0.00 | 78 | 1011.2 |
| 20260507085331 | 50 | 273 | 5.0 | 8.0 | 0.00 | 0.07 | 0.00 | 78 | 1011.2 |
| 20260507084822 | 50 | 287 | 3.0 | 8.0 | 0.00 | 0.07 | 0.00 | 78 | 1011.1 |
| 20260507084314 | 50 | 281 | 6.0 | 8.0 | 0.00 | 0.07 | 0.00 | 78 | 1011.2 |
| 20260507083847 | 50 | 269 | 3.0 | 9.0 | 0.00 | 0.07 | 0.00 | 78 | 1011.1 |
| 20260507083318 | 50 | 281 | 4.0 | 11.0 | 0.00 | 0.07 | 0.00 | 78 | 1011.1 |
| 20260507082813 | 50 | 276 | 5.0 | 11.0 | 0.00 | 0.07 | 0.00 | 79 | 1011.1 |
| 20260507082346 | 50 | 275 | 4.0 | 8.0 | 0.00 | 0.07 | 0.00 | 80 | 1010.9 |
| 20260507081816 | 50 | 279 | 4.0 | 8.0 | 0.00 | 0.07 | 0.00 | 81 | 1011.1 |
| 20260507081347 | 50 | 302 | 3.0 | 5.0 | 0.00 | 0.07 | 0.00 | 82 | 1011.0 |
| 20260507080817 | 50 | 277 | 3.0 | 8.0 | 0.00 | 0.07 | 0.00 | 82 | 1011.1 |
| 20260507080329 | 50 | 284 | 4.0 | 8.0 | 0.00 | 0.07 | 0.00 | 83 | 1011.1 |
| 20260507075819 | 50 | 288 | 5.0 | 8.0 | 0.00 | 0.07 | 0.00 | 83 | 1010.9 |
| 20260507075330 | 50 | 279 | 4.0 | 9.0 | 0.00 | 0.07 | 0.00 | 83 | 1010.8 |
| 20260507074823 | 50 | 286 | 4.0 | 9.0 | 0.00 | 0.07 | 0.00 | 83 | 1010.7 |
| 20260507074315 | 50 | 267 | 3.0 | 9.0 | 0.00 | 0.07 | 0.00 | 83 | 1010.7 |
| 20260507073831 | 50 | 266 | 6.0 | 9.0 | 0.00 | 0.07 | 0.00 | 83 | 1010.7 |
| 20260507073344 | 50 | 256 | 3.0 | 8.0 | 0.00 | 0.07 | 0.00 | 83 | 1010.6 |
| 20260507072815 | 51 | 296 | 2.0 | 6.0 | 0.00 | 0.07 | 0.00 | 83 | 1010.7 |
| 20260507072328 | 51 | 270 | 2.0 | 4.0 | 0.00 | 0.07 | 0.00 | 83 | 1010.7 |
| 20260507071819 | 51 | 277 | 1.0 | 4.0 | 0.00 | 0.07 | 0.00 | 83 | 1010.6 |
| 20260507071331 | 51 | 297 | 2.0 | 4.0 | 0.00 | 0.07 | 0.00 | 83 | 1010.7 |
| 20260507070822 | 51 | 274 | 1.0 | 8.0 | 0.00 | 0.07 | 0.00 | 82 | 1010.6 |
| 20260507070314 | 51 | 274 | 3.0 | 8.0 | 0.00 | 0.07 | 0.00 | 82 | 1010.6 |
| 20260507065824 | 51 | 271 | 0.0 | 5.0 | 0.00 | 0.07 | 0.00 | 82 | 1010.6 |
| 20260507065319 | 51 | 268 | 3.0 | 8.0 | 0.00 | 0.07 | 0.00 | 82 | 1010.6 |
| 20260507064833 | 51 | 279 | 4.0 | 9.0 | 0.00 | 0.07 | 0.00 | 82 | 1010.7 |
| 20260507064324 | 51 | 269 | 5.0 | 9.0 | 0.00 | 0.07 | 0.00 | 82 | 1010.8 |
| 20260507063816 | 51 | 277 | 3.0 | 8.0 | 0.00 | 0.07 | 0.00 | 82 | 1010.9 |
| 20260507063349 | 51 | 265 | 4.0 | 11.0 | 0.00 | 0.07 | 0.00 | 82 | 1011.0 |
| 20260507062819 | 51 | 286 | 6.0 | 11.0 | 0.00 | 0.07 | 0.00 | 82 | 1011.1 |
| 20260507062331 | 51 | 281 | 3.0 | 6.0 | 0.00 | 0.07 | 0.00 | 82 | 1011.1 |
| 20260507061844 | 51 | 269 | 3.0 | 5.0 | 0.00 | 0.07 | 0.00 | 82 | 1011.1 |
| 20260507061316 | 51 | 276 | 3.0 | 7.0 | 0.00 | 0.07 | 0.00 | 82 | 1011.3 |
| 20260507060832 | 51 | 275 | 4.0 | 7.0 | 0.00 | 0.07 | 0.00 | 82 | 1011.4 |
| 20260507060323 | 51 | 284 | 3.0 | 5.0 | 0.00 | 0.07 | 0.00 | 81 | 1011.4 |
| 20260507055813 | 51 | 267 | 2.0 | 4.0 | 0.00 | 0.07 | 0.00 | 81 | 1011.5 |
| 20260507055325 | 51 | 283 | 2.0 | 9.0 | 0.00 | 0.07 | 0.00 | 81 | 1011.4 |
| 20260507054817 | 51 | 292 | 4.0 | 9.0 | 0.00 | 0.07 | 0.00 | 81 | 1011.4 |
| 20260507054329 | 51 | 302 | 5.0 | 10.0 | 0.00 | 0.07 | 0.00 | 81 | 1011.4 |
| 20260507053822 | 51 | 273 | 6.0 | 10.0 | 0.00 | 0.07 | 0.00 | 81 | 1011.5 |
| 20260507053333 | 51 | 299 | 4.0 | 10.0 | 0.00 | 0.07 | 0.00 | 81 | 1011.4 |
| 20260507052828 | 51 | 273 | 6.0 | 10.0 | 0.00 | 0.07 | 0.00 | 81 | 1011.3 |
| 20260507052320 | 51 | 293 | 3.0 | 10.0 | 0.00 | 0.07 | 0.00 | 81 | 1011.3 |
| 20260507051833 | 51 | 277 | 4.0 | 11.0 | 0.00 | 0.07 | 0.00 | 81 | 1011.2 |
| 20260507051324 | 51 | 281 | 5.0 | 12.0 | 0.00 | 0.07 | 0.00 | 81 | 1011.0 |
| 20260507050837 | 51 | 277 | 4.0 | 12.0 | 0.00 | 0.07 | 0.00 | 82 | 1011.0 |
| 20260507050328 | 51 | 290 | 5.0 | 10.0 | 0.00 | 0.07 | 0.00 | 82 | 1010.8 |
| 20260507045817 | 51 | 288 | 6.0 | 11.0 | 0.00 | 0.07 | 0.00 | 82 | 1010.7 |
| 20260507045329 | 51 | 290 | 7.0 | 11.0 | 0.00 | 0.07 | 0.00 | 82 | 1010.8 |
| 20260507044821 | 51 | 309 | 7.0 | 12.0 | 0.00 | 0.07 | 0.00 | 81 | 1010.9 |
| 20260507044317 | 51 | 265 | 9.0 | 12.0 | 0.00 | 0.07 | 0.00 | 81 | 1011.0 |
| 20260507043850 | 52 | 281 | 6.0 | 10.0 | 0.00 | 0.07 | 0.00 | 81 | 1011.1 |
| 20260507043341 | 52 | 285 | 5.0 | 10.0 | 0.00 | 0.07 | 0.00 | 81 | 1011.2 |
| 20260507042832 | 52 | 294 | 5.0 | 11.0 | 0.00 | 0.07 | 0.00 | 81 | 1011.0 |
| 20260507042323 | 52 | 280 | 6.0 | 11.0 | 0.00 | 0.07 | 0.00 | 82 | 1011.1 |
| 20260507041815 | 52 | 279 | 3.0 | 10.0 | 0.00 | 0.07 | 0.00 | 82 | 1011.0 |
| 20260507041326 | 52 | 280 | 5.0 | 11.0 | 0.00 | 0.07 | 0.00 | 82 | 1011.0 |
| 20260507040838 | 52 | 263 | 4.0 | 8.0 | 0.00 | 0.07 | 0.00 | 81 | 1010.9 |
| 20260507040329 | 52 | 273 | 3.0 | 10.0 | 0.00 | 0.07 | 0.00 | 81 | 1010.6 |
| 20260507035818 | 52 | 310 | 5.0 | 10.0 | 0.00 | 0.07 | 0.00 | 82 | 1010.9 |
| 20260507035314 | 52 | 270 | 6.0 | 12.0 | 0.00 | 0.07 | 0.00 | 83 | 1011.1 |
| 20260507034848 | 52 | 284 | 7.0 | 12.0 | 0.00 | 0.07 | 0.00 | 84 | 1011.2 |
| 20260507034318 | 53 | 302 | 4.0 | 9.0 | 0.00 | 0.07 | 0.07 | 86 | 1011.4 |
| 20260507033830 | 53 | 294 | 3.0 | 7.0 | 0.00 | 0.07 | 0.07 | 86 | 1011.4 |
| 20260507033321 | 53 | 294 | 1.0 | 5.0 | 0.00 | 0.07 | 0.07 | 87 | 1010.9 |
| 20260507032853 | 53 | 285 | 2.0 | 6.0 | 0.00 | 0.07 | 0.07 | 87 | 1010.7 |
| 20260507032324 | 53 | 267 | 3.0 | 6.0 | 0.00 | 0.07 | 0.07 | 86 | 1010.5 |
| 20260507031815 | 53 | 277 | 3.0 | 10.0 | 0.00 | 0.07 | 0.07 | 86 | 1010.8 |
| 20260507031327 | 53 | 296 | 6.0 | 10.0 | 0.00 | 0.07 | 0.07 | 86 | 1010.8 |
| 20260507030822 | 53 | 284 | 6.0 | 11.0 | 0.00 | 0.07 | 0.07 | 86 | 1011.0 |
| 20260507030314 | 53 | 313 | 8.0 | 11.0 | 0.00 | 0.07 | 0.07 | 85 | 1011.2 |
| 20260507025824 | 54 | 298 | 5.0 | 8.0 | 0.00 | 0.07 | 0.07 | 86 | 1011.2 |
| 20260507025316 | 54 | 287 | 4.0 | 13.0 | 0.00 | 0.07 | 0.07 | 85 | 1010.9 |
| 20260507024828 | 54 | 296 | 5.0 | 13.0 | 0.00 | 0.07 | 0.07 | 85 | 1010.6 |
| 20260507024321 | 54 | 281 | 4.0 | 9.0 | 0.00 | 0.07 | 0.07 | 85 | 1010.9 |
| 20260507023832 | 54 | 282 | 5.0 | 13.0 | 0.00 | 0.07 | 0.07 | 85 | 1011.0 |
| 20260507023323 | 54 | 15 | 4.0 | 13.0 | 0.00 | 0.07 | 0.07 | 84 | 1010.4 |
| 20260507022819 | 54 | 303 | 5.0 | 10.0 | 0.00 | 0.07 | 0.07 | 84 | 1010.5 |
| 20260507022351 | 54 | 308 | 6.0 | 11.0 | 0.00 | 0.07 | 0.07 | 84 | 1010.6 |
| 20260507021822 | 54 | 291 | 7.0 | 13.0 | 0.00 | 0.07 | 0.07 | 84 | 1010.6 |
| 20260507021313 | 54 | 274 | 8.0 | 13.0 | 0.00 | 0.07 | 0.07 | 84 | 1010.4 |
| 20260507020825 | 54 | 284 | 8.0 | 13.0 | 0.00 | 0.07 | 0.07 | 83 | 1010.2 |
| 20260507020337 | 55 | 273 | 6.0 | 15.0 | 0.00 | 0.07 | 0.07 | 83 | 1010.3 |
| 20260507015846 | 55 | 261 | 8.0 | 15.0 | 0.00 | 0.07 | 0.07 | 83 | 1010.2 |
| 20260507015316 | 55 | 281 | 9.0 | 14.0 | 0.00 | 0.07 | 0.07 | 83 | 1010.1 |
| 20260507014828 | 55 | 302 | 6.0 | 12.0 | 0.00 | 0.07 | 0.07 | 83 | 1010.1 |
| 20260507014321 | 55 | 286 | 7.0 | 12.0 | 0.00 | 0.07 | 0.07 | 83 | 1010.0 |
| 20260507013817 | 55 | 290 | 7.0 | 12.0 | 0.00 | 0.07 | 0.07 | 83 | 1010.0 |
| 20260507013350 | 55 | 279 | 4.0 | 10.0 | 0.00 | 0.07 | 0.07 | 83 | 1010.0 |
| 20260507012821 | 55 | 267 | 4.0 | 12.0 | 0.00 | 0.07 | 0.07 | 83 | 1010.0 |
| 20260507012313 | 56 | 301 | 6.0 | 12.0 | 0.00 | 0.07 | 0.07 | 83 | 1010.4 |
| 20260507011825 | 56 | 280 | 5.0 | 7.0 | 0.00 | 0.07 | 0.07 | 83 | 1010.6 |
| 20260507011316 | 56 | 289 | 2.0 | 8.0 | 0.00 | 0.07 | 0.07 | 83 | 1010.5 |
| 20260507010848 | 56 | 290 | 2.0 | 11.0 | 0.00 | 0.07 | 0.07 | 83 | 1010.2 |
| 20260507010319 | 56 | 288 | 5.0 | 13.0 | 0.00 | 0.07 | 0.07 | 82 | 1010.1 |
| 20260507005829 | 56 | 292 | 6.0 | 12.0 | 0.00 | 0.07 | 0.07 | 83 | 1010.1 |
| 20260507005320 | 56 | 300 | 9.0 | 12.0 | 0.00 | 0.07 | 0.07 | 82 | 1009.9 |
| 20260507004816 | 56 | 285 | 6.0 | 11.0 | 0.00 | 0.07 | 0.07 | 83 | 1009.8 |
| 20260507004328 | 57 | 284 | 8.0 | 12.0 | 0.00 | 0.07 | 0.07 | 82 | 1009.9 |
| 20260507003819 | 57 | 293 | 6.0 | 13.0 | 0.00 | 0.07 | 0.07 | 82 | 1010.1 |
| 20260507003331 | 57 | 265 | 8.0 | 13.0 | 0.00 | 0.07 | 0.07 | 82 | 1010.4 |
| 20260507002823 | 57 | 288 | 4.0 | 10.0 | 0.00 | 0.07 | 0.07 | 82 | 1010.3 |
| 20260507002315 | 57 | 281 | 6.0 | 9.0 | 0.00 | 0.07 | 0.07 | 81 | 1010.2 |
| 20260507001827 | 58 | 276 | 4.0 | 11.0 | 0.00 | 0.07 | 0.07 | 81 | 1010.0 |
| 20260507001319 | 58 | 297 | 5.0 | 11.0 | 0.00 | 0.07 | 0.07 | 81 | 1010.1 |
| 20260507000814 | 58 | 87 | 1.0 | 10.0 | 0.00 | 0.07 | 0.07 | 82 | 1010.1 |
| 20260507000328 | 58 | 258 | 3.0 | 10.0 | 0.00 | 0.07 | 0.07 | 82 | 1010.2 |
| 20260506235837 | 58 | 234 | 2.0 | 10.0 | 0.00 | 0.07 | 0.07 | 83 | 1010.2 |
| 20260506235329 | 58 | 300 | 3.0 | 6.0 | 0.00 | 0.07 | 0.07 | 83 | 1010.2 |
| 20260506234820 | 58 | 262 | 4.0 | 11.0 | 0.00 | 0.07 | 0.07 | 82 | 1009.9 |
| 20260506234332 | 58 | 310 | 6.0 | 10.0 | 0.00 | 0.07 | 0.07 | 83 | 1009.9 |
| 20260506233824 | 58 | 269 | 5.0 | 11.0 | 0.00 | 0.07 | 0.07 | 83 | 1009.8 |
| 20260506233315 | 58 | 279 | 7.0 | 12.0 | 0.00 | 0.07 | 0.07 | 83 | 1009.8 |
| 20260506232848 | 58 | 271 | 7.0 | 16.0 | 0.00 | 0.07 | 0.07 | 83 | 1009.6 |
| 20260506232340 | 59 | 292 | 9.0 | 16.0 | 0.00 | 0.07 | 0.07 | 83 | 1009.3 |
| 20260506231815 | 59 | 278 | 9.0 | 14.0 | 0.00 | 0.07 | 0.07 | 84 | 1009.2 |
| 20260506231327 | 59 | 284 | 11.0 | 15.0 | 0.00 | 0.07 | 0.07 | 84 | 1009.1 |
| 20260506230840 | 59 | 282 | 9.0 | 13.0 | 0.00 | 0.07 | 0.07 | 85 | 1009.0 |
| 20260506230331 | 59 | 285 | 8.0 | 12.0 | 0.00 | 0.07 | 0.07 | 86 | 1008.9 |
| 20260506225821 | 60 | 269 | 7.0 | 11.0 | 0.00 | 0.07 | 0.07 | 85 | 1009.0 |
| 20260506225313 | 60 | 309 | 5.0 | 13.0 | 0.00 | 0.07 | 0.07 | 85 | 1009.3 |
| 20260506224825 | 60 | 300 | 7.0 | 14.0 | 0.00 | 0.07 | 0.07 | 85 | 1009.2 |
| 20260506224317 | 60 | 312 | 9.0 | 14.0 | 0.00 | 0.07 | 0.07 | 85 | 1009.0 |
| 20260506223849 | 60 | 275 | 5.0 | 10.0 | 0.00 | 0.07 | 0.07 | 86 | 1008.9 |
| 20260506223324 | 60 | 284 | 4.0 | 9.0 | 0.00 | 0.07 | 0.07 | 87 | 1009.0 |
| 20260506222816 | 61 | 295 | 3.0 | 9.0 | 0.00 | 0.07 | 0.07 | 87 | 1009.0 |
| 20260506222328 | 61 | 288 | 3.0 | 9.0 | 0.00 | 0.07 | 0.07 | 88 | 1008.9 |
| 20260506221820 | 61 | 298 | 4.0 | 11.0 | 0.00 | 0.07 | 0.07 | 87 | 1008.6 |
| 20260506221332 | 61 | 268 | 7.0 | 11.0 | 0.00 | 0.07 | 0.07 | 86 | 1008.8 |
| 20260506220824 | 61 | 291 | 6.0 | 11.0 | 0.00 | 0.07 | 0.07 | 85 | 1008.8 |
| 20260506220316 | 62 | 286 | 5.0 | 9.0 | 0.00 | 0.07 | 0.07 | 86 | 1008.9 |
| 20260506215827 | 62 | 299 | 5.0 | 10.0 | 0.00 | 0.07 | 0.07 | 86 | 1008.8 |
| 20260506215322 | 62 | 313 | 5.0 | 11.0 | 0.01 | 0.07 | 0.07 | 86 | 1008.6 |
| 20260506214835 | 62 | 293 | 7.0 | 11.0 | 0.01 | 0.07 | 0.07 | 85 | 1008.3 |
| 20260506214347 | 63 | 298 | 6.0 | 10.0 | 0.01 | 0.07 | 0.07 | 86 | 1008.1 |
| 20260506213818 | 63 | 278 | 6.0 | 11.0 | 0.01 | 0.07 | 0.07 | 85 | 1008.1 |
| 20260506213330 | 63 | 289 | 6.0 | 10.0 | 0.01 | 0.07 | 0.07 | 85 | 1008.2 |
| 20260506212822 | 63 | 284 | 7.0 | 10.0 | 0.01 | 0.07 | 0.07 | 86 | 1008.0 |
| 20260506212335 | 63 | 290 | 6.0 | 10.0 | 0.01 | 0.07 | 0.07 | 86 | 1008.0 |
| 20260506211826 | 63 | 293 | 4.0 | 9.0 | 0.01 | 0.07 | 0.07 | 86 | 1008.0 |
| 20260506211317 | 63 | 295 | 5.0 | 11.0 | 0.01 | 0.07 | 0.07 | 86 | 1008.0 |
| 20260506210851 | 64 | 279 | 6.0 | 17.0 | 0.01 | 0.07 | 0.07 | 85 | 1007.8 |
| 20260506210321 | 64 | 300 | 10.0 | 15.0 | 0.01 | 0.07 | 0.07 | 84 | 1007.9 |
| 20260506205815 | 65 | 269 | 9.0 | 14.0 | 0.01 | 0.07 | 0.07 | 81 | 1007.8 |
| 20260506205328 | 67 | 307 | 5.0 | 9.0 | 0.00 | 0.06 | 0.06 | 78 | 1007.8 |
| 20260506204821 | 67 | 292 | 3.0 | 5.0 | 0.00 | 0.06 | 0.06 | 79 | 1007.5 |
| 20260506204333 | 67 | 288 | 2.0 | 4.0 | 0.00 | 0.06 | 0.06 | 79 | 1007.4 |
| 20260506203845 | 68 | 290 | 1.0 | 3.0 | 0.00 | 0.06 | 0.06 | 78 | 1007.4 |
| 20260506203316 | 68 | 310 | 1.0 | 3.0 | 0.00 | 0.06 | 0.06 | 77 | 1007.5 |
| 20260506202827 | 68 | 296 | 0.0 | 5.0 | 0.00 | 0.06 | 0.06 | 78 | 1007.4 |
| 20260506202339 | 68 | 285 | 0.0 | 5.0 | 0.00 | 0.06 | 0.06 | 78 | 1007.3 |
| 20260506201830 | 68 | 307 | 2.0 | 4.0 | 0.00 | 0.06 | 0.06 | 77 | 1007.3 |
| 20260506201342 | 68 | 306 | 2.0 | 4.0 | 0.00 | 0.06 | 0.06 | 79 | 1007.3 |
| 20260506200817 | 67 | 144 | 1.0 | 3.0 | 0.00 | 0.06 | 0.06 | 82 | 1007.3 |
| 20260506200329 | 67 | 134 | 0.0 | 2.0 | 0.00 | 0.06 | 0.06 | 81 | 1007.4 |
| 20260506195820 | 66 | 153 | 0.0 | 2.0 | 0.00 | 0.06 | 0.06 | 82 | 1007.3 |
| 20260506195313 | 66 | 153 | 0.0 | 2.0 | 0.00 | 0.06 | 0.06 | 84 | 1007.3 |
| 20260506194825 | 66 | 153 | 0.0 | 2.0 | 0.00 | 0.06 | 0.06 | 84 | 1007.1 |
| 20260506194316 | 65 | 153 | 1.0 | 3.0 | 0.00 | 0.06 | 0.06 | 84 | 1007.1 |
| 20260506193829 | 65 | 153 | 1.0 | 3.0 | 0.00 | 0.06 | 0.06 | 84 | 1007.2 |
| 20260506193321 | 65 | 150 | 2.0 | 3.0 | 0.00 | 0.06 | 0.06 | 84 | 1007.3 |
| 20260506192817 | 65 | 148 | 0.0 | 3.0 | 0.00 | 0.06 | 0.06 | 84 | 1007.1 |
| 20260506192330 | 65 | 160 | 1.0 | 3.0 | 0.00 | 0.06 | 0.06 | 83 | 1007.4 |
| 20260506191822 | 65 | 160 | 0.0 | 3.0 | 0.00 | 0.06 | 0.06 | 84 | 1007.3 |
| 20260506191313 | 65 | 158 | 2.0 | 4.0 | 0.00 | 0.06 | 0.06 | 83 | 1007.4 |
| 20260506190826 | 65 | 302 | 0.0 | 0.0 | 0.00 | 0.06 | 0.06 | 83 | 1007.5 |
| 20260506190317 | 65 | 302 | 0.0 | 2.0 | 0.00 | 0.06 | 0.06 | 83 | 1007.5 |
| 20260506185848 | 65 | 302 | 0.0 | 2.0 | 0.00 | 0.06 | 0.06 | 83 | 1007.5 |
| 20260506185319 | 65 | 302 | 1.0 | 4.0 | 0.00 | 0.06 | 0.06 | 84 | 1007.6 |
| 20260506184815 | 65 | 302 | 2.0 | 5.0 | 0.00 | 0.06 | 0.06 | 84 | 1007.5 |
| 20260506184347 | 65 | 299 | 3.0 | 5.0 | 0.00 | 0.06 | 0.06 | 84 | 1007.4 |
| 20260506183838 | 64 | 310 | 3.0 | 5.0 | 0.00 | 0.06 | 0.06 | 84 | 1007.5 |
| 20260506183329 | 64 | 315 | 4.0 | 6.0 | 0.00 | 0.06 | 0.06 | 85 | 1007.4 |
| 20260506182822 | 64 | 314 | 4.0 | 6.0 | 0.00 | 0.06 | 0.06 | 85 | 1007.4 |
| 20260506182314 | 64 | 306 | 4.0 | 8.0 | 0.00 | 0.06 | 0.06 | 84 | 1007.5 |
| 20260506181826 | 64 | 9 | 3.0 | 9.0 | 0.00 | 0.06 | 0.06 | 83 | 1007.4 |
| 20260506181319 | 64 | 9 | 5.0 | 9.0 | 0.00 | 0.06 | 0.06 | 83 | 1007.6 |
| 20260506180852 | 65 | 294 | 6.0 | 8.0 | 0.00 | 0.06 | 0.06 | 82 | 1007.5 |
| 20260506180322 | 65 | 312 | 2.0 | 5.0 | 0.00 | 0.06 | 0.06 | 82 | 1007.5 |
| 20260506175835 | 65 | 172 | 2.0 | 5.0 | 0.00 | 0.06 | 0.06 | 80 | 1007.5 |
| 20260506175346 | 65 | 175 | 1.0 | 6.0 | 0.00 | 0.06 | 0.06 | 81 | 1007.5 |
| 20260506174821 | 65 | 177 | 3.0 | 10.0 | 0.00 | 0.06 | 0.06 | 80 | 1007.5 |